North Bennington, VT

1:32 PM EST on February 13, 2016 (GMT -0500)
Morse State

Weather History for KDDH - April, 2013

Change the Weather History Date:

Saturday, April 20, 2013

  Actual Average Record
Temperature  
Mean Temperature 42 °F 47 °F  
Max Temperature 51 °F 59 °F 81 °F (2005)
Min Temperature 33 °F 36 °F 23 °F (2001)
Degree Days  
Heating Degree Days 23 18  
Month to date heating degree days 423 429  
Since 1 July heating degree days 6224 6664  
Cooling Degree Days 0 0  
Month to date cooling degree days 0 0  
Year to date cooling degree days 0 0  
Moisture  
Dew Point 33 °F    
Average Humidity 64    
Maximum Humidity 92    
Minimum Humidity 36    
Precipitation  
Precipitation 0.23 in 0.10 in 0.23 in (2013)
Month to date precipitation 3.25 2.26  
Year to date precipitation 7.19 10.40  
Sea Level Pressure  
Sea Level Pressure 29.87 in    
Wind  
Wind Speed 9 mph (West)    
Max Wind Speed 20 mph    
Max Gust Speed 32 mph    
Visibility 8 miles    
Events Rain    
T = Trace of Precipitation, MM = Missing Value Source: NWS Daily Summary

Daily Weather History Graph

Daily Weather History Graph

Search for Another Location

Airport or City:

Trip Planner

Search our weather history database for the weather conditions in past years. The results will help you decide how hot, cold, wet, or windy it might be!

Date:

Astronomy

Apr. 20, 2013 Rise Set
Actual Time 6:03 AM EDT 7:41 PM EDT
Civil Twilight 5:33 AM EDT 8:11 PM EDT
Nautical Twilight 4:56 AM EDT 8:47 PM EDT
Astronomical Twilight 4:18 AM EDT 9:26 PM EDT
Moon 2:15 PM EDT (4/20) 2:58 AM EDT (4/20)
Length of Visible Light 14h 38m
Length of Day
13h 38m
Waxing Gibbous, 71% of the Moon is Illuminated
Apr 20
Waxing Gibbous
Apr 25
Full
May 2
Last Quarter
May 9
New
May 18
First Quarter

Hourly Weather History & Observations

Time (EDT) Temp. Windchill Dew Point Humidity Pressure Visibility Wind Dir Wind Speed Gust Speed Precip Events Conditions
12:01 AM 46.4 °F 41.9 °F 42.8 °F 87% 29.74 in 4.0 mi WSW 9.2 mph - 0.02 in Rain Rain
12:04 AM 46.4 °F 43.5 °F 42.8 °F 87% 29.72 in 2.5 mi West 5.8 mph - 0.04 in Rain Rain
12:12 AM 46.4 °F 43.5 °F 42.8 °F 87% 29.73 in 2.0 mi West 5.8 mph - 0.08 in Rain Rain
12:25 AM 44.6 °F 41.4 °F 42.8 °F 93% 29.74 in 3.0 mi SW 5.8 mph - 0.11 in Rain Light Rain
12:54 AM 45.0 °F 40.1 °F 42.1 °F 90% 29.75 in 5.0 mi West 9.2 mph - 0.17 in Rain Light Rain
1:14 AM 44.6 °F - 41.0 °F 87% 29.74 in 5.0 mi Calm Calm - 0.02 in Rain Light Rain
1:25 AM 44.6 °F - 41.0 °F 87% 29.74 in 8.0 mi Calm Calm - 0.02 in Rain Light Rain
1:54 AM 44.1 °F 39.5 °F 39.0 °F 82% 29.72 in 7.0 mi West 8.1 mph - 0.06 in Rain Light Rain
2:06 AM 42.8 °F 38.6 °F 39.2 °F 87% 29.74 in 6.0 mi WSW 6.9 mph - 0.01 in Rain Light Rain
2:28 AM 42.8 °F 38.0 °F 39.2 °F 87% 29.73 in 6.0 mi WNW 8.1 mph - 0.03 in Rain Light Rain
2:36 AM 42.8 °F 38.6 °F 37.4 °F 81% 29.74 in 5.0 mi West 6.9 mph - 0.04 in Rain Light Rain
2:51 AM 42.8 °F 37.5 °F 37.4 °F 81% 29.74 in 7.0 mi West 9.2 mph - 0.06 in Rain Light Rain
2:54 AM 42.1 °F 37.1 °F 37.0 °F 82% 29.73 in 7.0 mi West 8.1 mph - 0.06 in Rain Light Rain
3:54 AM 41.0 °F 39.0 °F 37.0 °F 86% 29.73 in 4.0 mi WNW 3.5 mph - 0.08 in Rain Light Rain
4:16 AM 41.0 °F 38.0 °F 37.4 °F 87% 29.75 in 10.0 mi West 4.6 mph - 0.01 in   Overcast
4:27 AM 41.0 °F 39.0 °F 37.4 °F 87% 29.76 in 8.0 mi Variable 3.5 mph - 0.01 in Rain Light Rain
4:54 AM 41.0 °F 38.0 °F 36.0 °F 82% 29.75 in 10.0 mi NW 4.6 mph - 0.02 in   Overcast
5:16 AM 39.2 °F 35.9 °F 35.6 °F 87% 29.74 in 10.0 mi WNW 4.6 mph - N/A   Overcast
5:43 AM 39.2 °F 37.0 °F 35.6 °F 87% 29.77 in 10.0 mi Variable 3.5 mph - N/A   Overcast
5:54 AM 39.9 °F 37.8 °F 36.0 °F 86% 29.78 in 10.0 mi Variable 3.5 mph - 0.00 in Rain Light Rain
6:54 AM 39.9 °F 35.1 °F 36.0 °F 86% 29.81 in 10.0 mi SW 6.9 mph - 0.00 in   Unknown
7:54 AM 42.1 °F 38.4 °F 34.0 °F 73% 29.82 in 10.0 mi West 5.8 mph - N/A   Overcast
8:54 AM 42.1 °F 37.7 °F 33.1 °F 70% 29.82 in 10.0 mi West 6.9 mph - N/A   Overcast
9:54 AM 44.1 °F 41.5 °F 34.0 °F 68% 29.83 in 10.0 mi Variable 4.6 mph - N/A   Scattered Clouds
10:54 AM 45.0 °F 40.1 °F 33.1 °F 63% 29.86 in 10.0 mi WSW 9.2 mph 18.4 mph N/A   Mostly Cloudy
12:54 PM 46.9 °F - 28.9 °F 50% 29.91 in 10.0 mi West 9.2 mph 17.3 mph 0.00 in   Overcast
1:54 PM 48.9 °F - 27.0 °F 43% 29.92 in 10.0 mi WNW 6.9 mph - N/A   Overcast
2:54 PM 48.0 °F - 26.1 °F 42% 29.94 in 10.0 mi WNW 15.0 mph 21.9 mph N/A   Unknown
3:54 PM 46.9 °F - 25.0 °F 42% 29.98 in 10.0 mi WNW 18.4 mph 32.2 mph 0.01 in   Overcast
4:54 PM 48.0 °F - 24.1 °F 39% 30.00 in 10.0 mi West 11.5 mph 20.7 mph N/A   Mostly Cloudy
5:54 PM 48.0 °F - 23.0 °F 37% 30.04 in 10.0 mi WNW 16.1 mph 24.2 mph N/A   Partly Cloudy
6:54 PM 45.0 °F 38.9 °F 24.1 °F 44% 30.08 in 10.0 mi WNW 12.7 mph 23.0 mph N/A   Mostly Cloudy
7:54 PM 42.1 °F 34.9 °F 21.0 °F 43% 30.14 in 10.0 mi WNW 13.8 mph 21.9 mph N/A   Scattered Clouds
8:54 PM 39.0 °F 30.6 °F 19.9 °F 46% 30.21 in 10.0 mi WNW 15.0 mph 24.2 mph N/A   Clear
9:54 PM 37.0 °F 28.9 °F 21.0 °F 52% 30.25 in 10.0 mi West 12.7 mph 26.5 mph N/A   Partly Cloudy
10:54 PM 34.0 °F 25.0 °F 19.9 °F 56% 30.29 in 10.0 mi West 12.7 mph 23.0 mph N/A   Clear
11:54 PM 33.1 °F 25.5 °F 18.0 °F 54% 30.28 in 10.0 mi West 9.2 mph 16.1 mph N/A   Scattered Clouds